Location: Lourdes
(43.1000°N, 0.0500°W)
Time: 08:26:07
(UTC+00:00)

ERS-2 - Pass Details

Date: 30 November 2020
Orbit: 492 x 498 km, 98.6° (Epoch: 25 January)

Event Time Altitude Azimuth Distance (km) Brightness Sun altitude
Exits shadow 18:31:32 14° 351° (N) 1,500 4.5 -22.2°
Maximum altitude 18:34:19 34° 290° (WNW) 849 3.7 -22.7°
Drops below altitude 10° 18:37:38 10° 225° (SW) 1,699 5.5 -23.3°
Sets 18:39:49 0° 216° (SW) 2,577 6.4 -23.7°
